Challis, ID

11:15 PM MST on February 20, 2018 (GMT -0700)
Challis

Weather History for KLLJ - June, 2014

Change the Weather History Date:

Sunday, June 8, 2014

  Actual Average Record
Temperature  
Mean Temperature 59 °F 58 °F  
Max Temperature 76 °F 73 °F 92 °F (2016)
Min Temperature 41 °F 43 °F 28 °F (1924)
Degree Days  
Heating Degree Days 6 7  
Month to date heating degree days 39 66  
Since 1 June heating degree days 39 66  
Since 1 July heating degree days 7606 8062  
Cooling Degree Days 0 0  
Month to date cooling degree days 0 0  
Year to date cooling degree days 0 2  
Since 1 June cooling degree days 0 0  
Growing Degree Days 9 (Base 50)    
Moisture  
Dew Point 29 °F    
Average Humidity 39    
Maximum Humidity 62    
Minimum Humidity 15    
Precipitation  
Precipitation 0.00 in 0.07 in 0.66 in (1944)
Month to date precipitation T 0.53  
Year to date precipitation 2.75 4.67  
Sea Level Pressure  
Sea Level Pressure 29.99 in    
Wind  
Wind Speed 5 mph (North)    
Max Wind Speed 13 mph    
Max Gust Speed 17 mph    
Visibility 10 miles    
Events      
T = Trace of Precipitation, MM = Missing Value Source: NWS Daily Summary

Daily Weather History Graph

Daily Weather History Graph

Search for Another Location

Airport or City:

Trip Planner

Search our weather history database for the weather conditions in past years. The results will help you decide how hot, cold, wet, or windy it might be!

Date:

Astronomy

Jun. 08, 2014 Rise Set
Actual Time 5:52 AM MDT 9:19 PM MDT
Civil Twilight 5:15 AM MDT 9:56 PM MDT
Nautical Twilight 4:28 AM MDT 10:44 PM MDT
Astronomical Twilight 3:27 AM MDT 11:45 PM MDT
Moon 4:32 PM MDT (6/8) 2:58 AM MDT (6/8)
Length of Visible Light 16h 40m
Length of Day
15h 27m
Waxing Gibbous, 77% of the Moon is Illuminated
Jun 8
Waxing Gibbous
Jun 12
Full
Jun 19
Last Quarter
Jun 27
New
Jul 5
First Quarter

Hourly Weather History & Observations

Time (MDT) Temp. Windchill Dew Point Humidity Pressure Visibility Wind Dir Wind Speed Gust Speed Precip Events Conditions
12:55 AM 53.1 °F - 30.0 °F 41% 29.95 in 10.0 mi NNW 8.1 mph - N/A   Scattered Clouds
1:55 AM 54.0 °F - 28.9 °F 38% 29.95 in 10.0 mi NW 9.2 mph - N/A   Mostly Cloudy
2:55 AM 50.0 °F - 28.0 °F 43% 29.97 in 10.0 mi WNW 9.2 mph - N/A   Clear
3:55 AM 48.0 °F - 28.9 °F 48% 29.98 in 10.0 mi North 4.6 mph - N/A   Clear
4:55 AM 48.0 °F - 28.0 °F 46% 29.99 in 10.0 mi Variable 3.5 mph - N/A   Clear
5:55 AM 43.0 °F 41.3 °F 30.0 °F 60% 30.03 in 10.0 mi SSE 3.5 mph - N/A   Clear
6:55 AM 48.9 °F - 28.9 °F 46% 30.05 in 10.0 mi NNE 3.5 mph - N/A   Clear
7:55 AM 51.1 °F - 32.0 °F 48% 30.06 in 10.0 mi ESE 3.5 mph - N/A   Clear
8:55 AM 55.9 °F - 30.0 °F 37% 30.06 in 10.0 mi Calm Calm - N/A   Clear
9:55 AM 62.1 °F - 30.9 °F 31% 30.05 in 10.0 mi Variable 4.6 mph - N/A   Partly Cloudy
10:55 AM 64.0 °F - 28.9 °F 27% 30.04 in 10.0 mi SW 3.5 mph - N/A   Clear
11:55 AM 68.0 °F - 28.0 °F 22% 30.03 in 10.0 mi NE 9.2 mph - N/A   Scattered Clouds
12:55 PM 68.0 °F - 27.0 °F 21% 30.03 in 10.0 mi Variable 4.6 mph - N/A   Partly Cloudy
1:55 PM 70.0 °F - 27.0 °F 20% 30.01 in 10.0 mi Variable 4.6 mph - N/A   Partly Cloudy
2:55 PM 71.1 °F - 26.1 °F 19% 29.99 in 10.0 mi South 3.5 mph - N/A   Clear
3:55 PM 75.0 °F - 25.0 °F 16% 29.97 in 10.0 mi Variable 5.8 mph 17.3 mph N/A   Partly Cloudy
4:55 PM 73.9 °F - 25.0 °F 16% 29.95 in 10.0 mi ENE 8.1 mph - N/A   Clear
5:55 PM 75.0 °F - 28.0 °F 18% 29.95 in 10.0 mi NNE 6.9 mph - N/A   Clear
6:55 PM 75.0 °F - 28.0 °F 18% 29.92 in 10.0 mi NNE 6.9 mph - N/A   Clear
7:55 PM 73.0 °F - 30.0 °F 20% 29.92 in 10.0 mi North 4.6 mph - N/A   Clear
8:55 PM 63.0 °F - 35.1 °F 35% 29.93 in 10.0 mi NNW 3.5 mph - N/A   Clear
9:55 PM 62.1 °F - 28.0 °F 28% 29.94 in 10.0 mi NW 4.6 mph - N/A   Clear
10:55 PM 57.0 °F - 32.0 °F 39% 29.95 in 10.0 mi Calm Calm - N/A   Clear
11:55 PM 55.0 °F - 33.1 °F 43% 29.95 in 10.0 mi SE 5.8 mph - N/A   Clear